Huntsville, AL

12:58 AM CDT on March 28, 2017 (GMT -0500)
Huntsville International

Weather History for KHSV - April, 2012

Change the Weather History Date:

Tuesday, April 3, 2012

  Actual Average Record
Temperature  
Mean Temperature 71 °F 58 °F  
Max Temperature 84 °F 70 °F 88 °F (1999)
Min Temperature 58 °F 46 °F 26 °F (1992)
Degree Days  
Heating Degree Days 0 8  
Month to date heating degree days 0 24  
Since 1 July heating degree days 2244 2844  
Cooling Degree Days 6 1  
Month to date cooling degree days 18 3  
Year to date cooling degree days 100 17  
Growing Degree Days 20 (Base 50)    
Moisture  
Dew Point 58 °F    
Average Humidity 65    
Maximum Humidity 90    
Minimum Humidity 40    
Precipitation  
Precipitation 0.00 in 0.14 in 2.24 in (2000)
Month to date precipitation 0.00 0.45  
Year to date precipitation 15.67 15.39  
Snow  
Snow 0.00 in - - ()
Month to date snowfall 0.0  
Since 1 July snowfall T  
Snow Depth 0.00 in    
Sea Level Pressure  
Sea Level Pressure 29.91 in    
Wind  
Wind Speed 3 mph (SSW)    
Max Wind Speed 12 mph    
Max Gust Speed 15 mph    
Visibility 10 miles    
Events      
T = Trace of Precipitation, MM = Missing Value Source: NWS Daily Summary

Daily Weather History Graph

Daily Weather History Graph

Search for Another Location

Airport or City:

Trip Planner

Search our weather history database for the weather conditions in past years. The results will help you decide how hot, cold, wet, or windy it might be!

Date:

Astronomy

Apr. 03, 2012 Rise Set
Actual Time 6:30 AM CDT 7:10 PM CDT
Civil Twilight 6:05 AM CDT 7:35 PM CDT
Nautical Twilight 5:35 AM CDT 8:05 PM CDT
Astronomical Twilight 5:04 AM CDT 8:36 PM CDT
Moon 4:00 PM CDT (4/3) 4:10 AM CDT (4/3)
Length of Visible Light 13h 30m
Length of Day
12h 39m
Waxing Gibbous, 87% of the Moon is Illuminated
Apr 3
Waxing Gibbous
Apr 6
Full
Apr 13
Last Quarter
Apr 21
New
Apr 29
First Quarter

Hourly Weather History & Observations

Time (CDT) Temp. Heat Index Dew Point Humidity Pressure Visibility Wind Dir Wind Speed Gust Speed Precip Events Conditions
12:53 AM 68.0 °F - 59.0 °F 73% 29.88 in 10.0 mi Calm Calm - N/A   Partly Cloudy
1:53 AM 63.0 °F - 57.0 °F 81% 29.87 in 10.0 mi ESE 3.5 mph - N/A   Scattered Clouds
2:53 AM 61.0 °F - 57.9 °F 90% 29.88 in 10.0 mi South 3.5 mph - N/A   Scattered Clouds
3:53 AM 59.0 °F - 55.9 °F 90% 29.90 in 10.0 mi SE 4.6 mph - N/A   Scattered Clouds
4:53 AM 59.0 °F - 55.9 °F 90% 29.91 in 10.0 mi Calm Calm - N/A   Partly Cloudy
5:53 AM 59.0 °F - 55.9 °F 90% 29.92 in 10.0 mi Calm Calm - N/A   Partly Cloudy
6:53 AM 61.0 °F - 57.0 °F 87% 29.93 in 10.0 mi ENE 5.8 mph - N/A   Scattered Clouds
7:53 AM 64.0 °F - 59.0 °F 84% 29.96 in 10.0 mi Calm Calm - N/A   Mostly Cloudy
8:53 AM 68.0 °F - 61.0 °F 78% 29.96 in 10.0 mi WSW 3.5 mph - N/A   Mostly Cloudy
9:53 AM 70.0 °F - 61.0 °F 73% 29.98 in 10.0 mi WSW 5.8 mph - N/A   Mostly Cloudy
10:53 AM 75.0 °F - 60.1 °F 60% 29.99 in 10.0 mi Calm Calm - N/A   Mostly Cloudy
11:53 AM 79.0 °F - 57.0 °F 47% 29.96 in 10.0 mi Variable 4.6 mph - N/A   Scattered Clouds
12:53 PM 79.0 °F - 57.9 °F 48% 29.94 in 10.0 mi Calm Calm - N/A   Scattered Clouds
1:53 PM 82.0 °F 82.0 °F 57.9 °F 44% 29.92 in 10.0 mi WSW 6.9 mph - N/A   Scattered Clouds
2:53 PM 82.9 °F 82.4 °F 57.0 °F 41% 29.89 in 10.0 mi Variable 4.6 mph - N/A   Scattered Clouds
3:53 PM 82.9 °F 82.0 °F 55.0 °F 38% 29.86 in 10.0 mi Variable 6.9 mph - N/A   Mostly Cloudy
4:53 PM 82.9 °F 82.1 °F 55.9 °F 39% 29.86 in 10.0 mi WSW 8.1 mph - N/A   Mostly Cloudy
5:53 PM 81.0 °F 81.0 °F 57.0 °F 44% 29.87 in 10.0 mi West 5.8 mph - N/A   Mostly Cloudy
6:53 PM 78.1 °F - 59.0 °F 52% 29.87 in 10.0 mi WNW 9.2 mph - N/A   Mostly Cloudy
7:53 PM 73.9 °F - 61.0 °F 64% 29.88 in 10.0 mi Variable 3.5 mph - N/A   Scattered Clouds
8:53 PM 72.0 °F - 60.1 °F 66% 29.89 in 10.0 mi Calm Calm - N/A   Scattered Clouds
9:53 PM 66.9 °F - 61.0 °F 81% 29.89 in 10.0 mi ESE 4.6 mph - N/A   Partly Cloudy
10:53 PM 66.9 °F - 60.1 °F 79% 29.88 in 10.0 mi Calm Calm - N/A   Scattered Clouds
11:53 PM 66.9 °F - 61.0 °F 81% 29.89 in 10.0 mi Calm Calm - N/A   Overcast